Tracking 21470 objects as of 23-Sep-2020
HD Live streaming from Space Station
objects crossing your sky now

SL-8 DEB

Track SL-8 DEB now!
10-day predictions


NORAD ID: 21861
Int'l Code: 1991-009CA
Perigee: 1,469.8 km
Apogee: 1,688.2 km
Inclination: 74.0 °
Period: 117.6 minutes
Semi major axis: 7950 km
RCS: 0.0407 m2 (small)
Launch date: February 12, 1991
Source: Commonwealth of Independent States (former USSR) (CIS)
Launch site: PLESETSK MISSILE AND SPACE COMPLEX (PKMTR)

Note: This is SATELLITE DEBRIS
aabbcc
Your satellite tracking list
Your tracking list is empty




NASA's NSSDC Master Catalog

Two Line Element Set (TLE):
1 21861U 91009CA  20266.19980958 +.00000052 +00000-0 +59563-3 0  9990
2 21861 074.0250 175.3822 0137361 269.2828 261.9554 12.24762629320349
Source of the keplerian elements: AFSPC